Regional Weather Roundup
Issued by NWS

Home | Current Version | Previous Version | Text Only | Print | Product List | Glossary On
Versions: 1 2 3 4 5 6 7 8 9 10 11 12 13 14 15 16 17 18 19 20 21 22 23 24 25 26 27 28 29 30 31 32 33 34 35 36 37 38 39 40 41 42 43 44 45 46 47 48 49 50
000
ASUS43 KLSX 162259
RWRMO

WEATHER SUMMARY FOR MISSOURI
NATIONAL WEATHER SERVICE SPRINGFIELD MO
600 PM CDT WED APR 16 2014

NOTE: "FAIR" INDICATES FEW OR NO CLOUDS BELOW 12,000 FEET WITH NO
       SIGNIFICANT WEATHER AND/OR OBSTRUCTIONS TO VISIBILITY.
       CURRENT SKY AND/OR WEATHER CONDITIONS ARE NOT AVAILABLE FOR
       CHILLICOTHE AND FARMINGTON.

MOZ001>031-035>038-043-044-053-054-170000-
...NORTHERN AND WESTERN MISSOURI...

CITY           SKY/WX    TMP DP  RH WIND       PRES   REMARKS
KANSAS CTY INT PTSUNNY   61  30  31 S26G37    29.85S
KANSAS C DTWN  MOSUNNY   64  32  30 S21G35    29.87S
LEE`S SUMMIT   SUNNY     62  32  32 SW13G29   29.89S
ST JOSEPH      MOSUNNY   66  32  28 S23G38    29.81S
KIRKSVILLE     SUNNY     61  27  27 S22G30    29.92R

$$
MOZ066>068-077>081-088>096-101>105-170000-
...SOUTHWEST MISSOURI...

CITY           SKY/WX    TMP DP  RH WIND       PRES   REMARKS
SPRINGFIELD    SUNNY     61  27  27 S21G29    29.95S
JOPLIN         SUNNY     63  30  28 S17G29    29.95R

$$
MOZ032>034-039>042-045>050-055>058-069>072-170000-
...CENTRAL MISSOURI...

CITY           SKY/WX    TMP DP  RH WIND       PRES   REMARKS
COLUMBIA       SUNNY     59  26  28 S22G30    29.96R
JEFFERSON CITY SUNNY     61  25  25 S18G29    29.97S
ROLLA          MOSUNNY   57  24  28 S21G29    29.98F
SEDALIA        SUNNY     63  31  30 S20G26    29.94R
OSAGE BEACH    SUNNY     61  25  25 S13G24    29.99S

$$
MOZ051-052-059>065-170000-
...EAST CENTRAL MISSOURI...

CITY           SKY/WX    TMP DP  RH WIND       PRES   REMARKS
ST LOUIS INTL  PTSUNNY   58  22  24 SE21G29   30.06F
SPIRIT OF STL  MOSUNNY   58  20  22 S10G23    30.03F
ST CHARLES     SUNNY     57  26  30 S24G30    30.04F

$$
MOZ072>076-082>087-097>100-106>115-170000-
...SOUTH CENTRAL AND SOUTHEAST MISSOURI...

CITY           SKY/WX    TMP DP  RH WIND       PRES   REMARKS
CAPE GIRARDEAU PTSUNNY   55  31  39 S12       30.13F
FARMINGTON     MOSUNNY   55  25  30 S15       30.10F
POPLAR BLUFF   CLOUDY    55  29  36 SE10      30.12S
WEST PLAINS    MOSUNNY   54  26  34 S13       30.06F

$$



USA.gov is the U.S. government's official web portal to all federal, state and local government web resources and services.